Weather History for KMSL - February, 2014

Change the Weather History Date:

Sunday, February 23, 2014

  Actual Average Record
Temperature  
Mean Temperature 56 °F 47 °F  
Max Temperature 71 °F 58 °F 83 °F (2012)
Min Temperature 41 °F 37 °F 17 °F (1963)
Degree Days  
Heating Degree Days 9 18  
Month to date heating degree days 479 471  
Since 1 July heating degree days 2652 2451  
Cooling Degree Days 0 0  
Month to date cooling degree days 0 0  
Year to date cooling degree days 0 0  
Growing Degree Days 6 (Base 50)    
Moisture  
Dew Point 37 °F    
Average Humidity 54    
Maximum Humidity 76    
Minimum Humidity 31    
Precipitation  
Precipitation 0.00 in 0.18 in 2.72 in (1977)
Month to date precipitation 3.78 3.81  
Year to date precipitation 5.48 8.42  
Snow  
Snow 0.00 in - - ()
Month to date snowfall 1.4  
Since 1 July snowfall 1.4  
Snow Depth 0.00 in    
Sea Level Pressure  
Sea Level Pressure 30.02 in    
Wind  
Wind Speed 4 mph (North)    
Max Wind Speed 15 mph    
Max Gust Speed 23 mph    
Visibility 10 miles    
Events      
T = Trace of Precipitation, MM = Missing Value Source: NWS Daily Summary

Daily Weather History Graph

Daily Weather History Graph

Search for Another Location

Airport or City:

Trip Planner

Search our weather history database for the weather conditions in past years. The results will help you decide how hot, cold, wet, or windy it might be!

Date:

Astronomy

Feb. 23, 2014 Rise Set
Actual Time 6:26 AM CST 5:40 PM CST
Civil Twilight 6:01 AM CST 6:06 PM CST
Nautical Twilight 5:32 AM CST 6:35 PM CST
Astronomical Twilight 5:02 AM CST 7:05 PM CST
Moon 1:17 AM CST (2/23) 11:50 AM CST (2/23)
Length of Visible Light 12h 04m
Length of Day
11h 13m
Last Quarter, 38% of the Moon is Illuminated
Feb 23
Last Quarter
Mar 1
New
Mar 8
First Quarter
Mar 16
Full
Mar 23
Last Quarter

Hourly Weather History & Observations

Time (CST) Temp. Windchill Dew Point Humidity Pressure Visibility Wind Dir Wind Speed Gust Speed Precip Events Conditions
12:53 AM 46.0 °F - 36.0 °F 68% 30.02 in 10.0 mi Calm Calm - N/A   Mostly Cloudy
1:53 AM 48.0 °F - 36.0 °F 63% 30.02 in 10.0 mi Calm Calm - N/A   Overcast
2:53 AM 46.9 °F - 36.0 °F 66% 30.02 in 10.0 mi Calm Calm - N/A   Overcast
3:53 AM 46.0 °F - 36.0 °F 68% 30.03 in 10.0 mi Calm Calm - N/A   Mostly Cloudy
4:53 AM 45.0 °F 43.5 °F 35.1 °F 68% 30.03 in 10.0 mi East 3.5 mph - N/A   Clear
5:53 AM 42.1 °F 40.2 °F 34.0 °F 73% 30.03 in 10.0 mi ESE 3.5 mph - N/A   Clear
6:53 AM 42.1 °F 40.2 °F 35.1 °F 76% 30.02 in 10.0 mi ESE 3.5 mph - N/A   Clear
7:53 AM 50.0 °F - 37.0 °F 61% 30.03 in 10.0 mi Calm Calm - N/A   Clear
8:53 AM 57.0 °F - 34.0 °F 42% 30.04 in 10.0 mi SE 3.5 mph - N/A   Clear
9:53 AM 62.1 °F - 35.1 °F 37% 30.04 in 10.0 mi Calm Calm - N/A   Clear
10:53 AM 66.0 °F - 37.9 °F 36% 30.03 in 10.0 mi WNW 5.8 mph - N/A   Clear
11:53 AM 66.9 °F - 37.0 °F 33% 30.00 in 10.0 mi Variable 3.5 mph - N/A   Clear
12:53 PM 69.1 °F - 37.9 °F 32% 29.98 in 10.0 mi Variable 4.6 mph - N/A   Clear
1:53 PM 71.1 °F - 41.0 °F 34% 29.96 in 10.0 mi Calm Calm - N/A   Clear
2:53 PM 71.1 °F - 42.1 °F 35% 29.95 in 10.0 mi NW 9.2 mph - N/A   Clear
3:53 PM 70.0 °F - 42.1 °F 36% 29.95 in 10.0 mi NW 6.9 mph - N/A   Clear
4:53 PM 69.1 °F - 41.0 °F 36% 29.95 in 10.0 mi NW 3.5 mph - N/A   Mostly Cloudy
5:53 PM 64.9 °F - 39.9 °F 40% 29.97 in 10.0 mi NW 4.6 mph - N/A   Partly Cloudy
6:53 PM 62.1 °F - 41.0 °F 46% 29.99 in 10.0 mi NNW 3.5 mph - N/A   Scattered Clouds
7:53 PM 57.0 °F - 36.0 °F 45% 30.03 in 10.0 mi North 12.7 mph 19.6 mph N/A   Partly Cloudy
8:53 PM 54.0 °F - 36.0 °F 51% 30.07 in 10.0 mi North 10.4 mph 16.1 mph N/A   Clear
9:53 PM 51.1 °F - 36.0 °F 56% 30.11 in 10.0 mi North 9.2 mph - N/A   Overcast
10:53 PM 50.0 °F - 34.0 °F 54% 30.12 in 10.0 mi NNE 9.2 mph 18.4 mph N/A   Partly Cloudy
11:53 PM 48.0 °F - 35.1 °F 61% 30.13 in 10.0 mi North 8.1 mph - N/A   Mostly Cloudy